UAL32 KLAX-KEWR

Flight info

Callsign UAL32
Flight time N/A
Altitude 35000
Route OSHNN1 BEALE J146 DVC HBU MCK OVR DSM EVOTE NELLS KEEHO J584 SLT FQM3
Aircraft A21N/M-SDE3FGHIRWY/LB1

Departure

Time 2026-05-08 05:38
Airport Los Angeles International Airport (KLAX)

Arrival

Time N/A
Airport Newark Liberty International Airport (KEWR)
Time Latitude Longitude Altitude Speed Heading
2026-05-08 05:23 33.94095 -118.39769 124 ft 0 kts 83°
2026-05-08 05:27 33.94094 -118.39774 124 ft 2 kts 83°
2026-05-08 05:28 33.94093 -118.39793 124 ft 2 kts 83°
2026-05-08 05:28 33.94093 -118.39811 124 ft 2 kts 116°
2026-05-08 05:28 33.94103 -118.39825 124 ft 2 kts 146°
2026-05-08 05:28 33.94114 -118.39831 124 ft 0 kts 170°
2026-05-08 05:29 33.94120 -118.39831 124 ft 1 kts 174°
2026-05-08 05:29 33.94121 -118.39831 124 ft 0 kts 174°
2026-05-08 05:31 33.94091 -118.39829 124 ft 10 kts 179°
2026-05-08 05:31 33.94003 -118.39823 121 ft 15 kts 173°
2026-05-08 05:32 33.93913 -118.39763 120 ft 16 kts 113°
2026-05-08 05:32 33.93918 -118.39613 115 ft 19 kts 83°
2026-05-08 05:32 33.93932 -118.39471 113 ft 15 kts 83°
2026-05-08 05:32 33.93947 -118.39333 111 ft 17 kts 83°
2026-05-08 05:33 33.93962 -118.39179 110 ft 19 kts 83°
2026-05-08 05:33 33.93979 -118.39018 109 ft 19 kts 83°
2026-05-08 05:33 33.93996 -118.38853 108 ft 15 kts 83°
2026-05-08 05:33 33.94010 -118.38716 107 ft 17 kts 83°
2026-05-08 05:34 33.94025 -118.38570 106 ft 18 kts 83°
2026-05-08 05:34 33.94040 -118.38419 105 ft 19 kts 83°
2026-05-08 05:34 33.94056 -118.38259 104 ft 17 kts 83°
2026-05-08 05:34 33.94069 -118.38131 103 ft 13 kts 83°
2026-05-08 05:35 33.94077 -118.38051 103 ft 5 kts 88°
2026-05-08 05:35 33.94075 -118.38033 102 ft 0 kts 110°
2026-05-08 05:37 33.94057 -118.38010 102 ft 10 kts 149°
2026-05-08 05:37 33.93989 -118.38011 102 ft 11 kts 244°
2026-05-08 05:37 33.93971 -118.38144 103 ft 37 kts 263°
2026-05-08 05:37 33.93910 -118.38753 107 ft 108 kts 263°
2026-05-08 05:38 33.93789 -118.39919 119 ft 167 kts 263°
2026-05-08 05:38 33.93639 -118.41410 477 ft 187 kts 263°
2026-05-08 05:38 33.93478 -118.42971 1218 ft 190 kts 263°
2026-05-08 05:38 33.93309 -118.44535 1952 ft 192 kts 263°
2026-05-08 05:39 33.92944 -118.46123 2423 ft 206 kts 243°
2026-05-08 05:39 33.92106 -118.47580 2863 ft 222 kts 233°
2026-05-08 05:39 33.91087 -118.49097 3232 ft 245 kts 232°
2026-05-08 05:39 33.89937 -118.50725 3684 ft 264 kts 231°
2026-05-08 05:40 33.88733 -118.52402 4359 ft 272 kts 232°
2026-05-08 05:40 33.87506 -118.54123 5208 ft 273 kts 232°
2026-05-08 05:40 33.86038 -118.55610 6005 ft 281 kts 207°
2026-05-08 05:40 33.84146 -118.56027 6795 ft 286 kts 176°
2026-05-08 05:41 33.82185 -118.55561 7548 ft 290 kts 167°
2026-05-08 05:41 33.80217 -118.54980 8242 ft 294 kts 167°
2026-05-08 05:41 33.78265 -118.54414 8948 ft 296 kts 167°
2026-05-08 05:41 33.76250 -118.53851 9649 ft 299 kts 167°
2026-05-08 05:42 33.74235 -118.53299 10322 ft 302 kts 167°
2026-05-08 05:42 33.72129 -118.52708 10699 ft 316 kts 163°
2026-05-08 05:42 33.70155 -118.51458 10962 ft 329 kts 137°
2026-05-08 05:42 33.68798 -118.49254 11246 ft 340 kts 113°
2026-05-08 05:43 33.67977 -118.46524 11549 ft 354 kts 108°
2026-05-08 05:43 33.67180 -118.43680 11929 ft 365 kts 108°
2026-05-08 05:43 33.66349 -118.40791 12534 ft 368 kts 108°
2026-05-08 05:43 33.65500 -118.37885 13164 ft 370 kts 108°
2026-05-08 05:44 33.64820 -118.34911 13625 ft 376 kts 101°
2026-05-08 05:44 33.64465 -118.31804 14159 ft 379 kts 93°
2026-05-08 05:44 33.64399 -118.28646 14725 ft 382 kts 89°
2026-05-08 05:44 33.64408 -118.25462 15294 ft 385 kts 89°
2026-05-08 05:45 33.64442 -118.22234 15852 ft 387 kts 86°
2026-05-08 05:45 33.65006 -118.19087 16330 ft 389 kts 66°
2026-05-08 05:45 33.66436 -118.16342 16888 ft 389 kts 47°
2026-05-08 05:45 33.68471 -118.14246 17465 ft 390 kts 37°
2026-05-08 05:46 33.70676 -118.12289 17997 ft 393 kts 36°
2026-05-08 05:46 33.72883 -118.10343 18494 ft 396 kts 36°
2026-05-08 05:46 33.75091 -118.08388 18981 ft 399 kts 36°
2026-05-08 05:46 33.77324 -118.06399 19453 ft 402 kts 36°
2026-05-08 05:47 33.79561 -118.04399 19934 ft 404 kts 36°
2026-05-08 05:47 33.81834 -118.02361 20393 ft 407 kts 37°
2026-05-08 05:47 33.84092 -118.00333 20832 ft 410 kts 37°